Index of /20260430/WXO-DD/model_gdps/15km/12/135
Name Last modified Size Description
Parent Directory -
20260430T12Z_MSC_GDPS_AbsoluteVorticity_IsbL-0200_LatLon0.15_PT135H.grib2 2026-04-30 16:25 1.5M
20260430T12Z_MSC_GDPS_AbsoluteVorticity_IsbL-0250_LatLon0.15_PT135H.grib2 2026-04-30 16:25 1.3M
20260430T12Z_MSC_GDPS_AbsoluteVorticity_IsbL-0500_LatLon0.15_PT135H.grib2 2026-04-30 16:25 1.2M
20260430T12Z_MSC_GDPS_AbsoluteVorticity_IsbL-0700_LatLon0.15_PT135H.grib2 2026-04-30 16:25 1.3M
20260430T12Z_MSC_GDPS_AbsoluteVorticity_IsbL-0850_LatLon0.15_PT135H.grib2 2026-04-30 16:25 1.6M
20260430T12Z_MSC_GDPS_AirTemp_AGL-120m_LatLon0.15_PT135H.grib2 2026-04-30 16:25 903K
20260430T12Z_MSC_GDPS_AirTemp_AGL-2m_LatLon0.15_PT135H.grib2 2026-04-30 16:25 1.0M
20260430T12Z_MSC_GDPS_AirTemp_AGL-40m_LatLon0.15_PT135H.grib2 2026-04-30 16:25 924K
20260430T12Z_MSC_GDPS_AirTemp_AGL-80m_LatLon0.15_PT135H.grib2 2026-04-30 16:25 912K
20260430T12Z_MSC_GDPS_AirTemp_IsbL-0001_LatLon0.15_PT135H.grib2 2026-04-30 16:25 651K
20260430T12Z_MSC_GDPS_AirTemp_IsbL-0005_LatLon0.15_PT135H.grib2 2026-04-30 16:25 684K
20260430T12Z_MSC_GDPS_AirTemp_IsbL-0010_LatLon0.15_PT135H.grib2 2026-04-30 16:25 692K
20260430T12Z_MSC_GDPS_AirTemp_IsbL-0020_LatLon0.15_PT135H.grib2 2026-04-30 16:25 789K
20260430T12Z_MSC_GDPS_AirTemp_IsbL-0030_LatLon0.15_PT135H.grib2 2026-04-30 16:25 838K
20260430T12Z_MSC_GDPS_AirTemp_IsbL-0050_LatLon0.15_PT135H.grib2 2026-04-30 16:25 808K
20260430T12Z_MSC_GDPS_AirTemp_IsbL-0100_LatLon0.15_PT135H.grib2 2026-04-30 16:25 963K
20260430T12Z_MSC_GDPS_AirTemp_IsbL-0150_LatLon0.15_PT135H.grib2 2026-04-30 16:25 966K
20260430T12Z_MSC_GDPS_AirTemp_IsbL-0175_LatLon0.15_PT135H.grib2 2026-04-30 16:25 959K
20260430T12Z_MSC_GDPS_AirTemp_IsbL-0200_LatLon0.15_PT135H.grib2 2026-04-30 16:25 1.0M
20260430T12Z_MSC_GDPS_AirTemp_IsbL-0225_LatLon0.15_PT135H.grib2 2026-04-30 16:25 1.0M
20260430T12Z_MSC_GDPS_AirTemp_IsbL-0250_LatLon0.15_PT135H.grib2 2026-04-30 16:25 1.0M
20260430T12Z_MSC_GDPS_AirTemp_IsbL-0275_LatLon0.15_PT135H.grib2 2026-04-30 16:25 1.0M
20260430T12Z_MSC_GDPS_AirTemp_IsbL-0300_LatLon0.15_PT135H.grib2 2026-04-30 16:25 937K
20260430T12Z_MSC_GDPS_AirTemp_IsbL-0350_LatLon0.15_PT135H.grib2 2026-04-30 16:25 921K
20260430T12Z_MSC_GDPS_AirTemp_IsbL-0400_LatLon0.15_PT135H.grib2 2026-04-30 16:25 936K
20260430T12Z_MSC_GDPS_AirTemp_IsbL-0450_LatLon0.15_PT135H.grib2 2026-04-30 16:25 960K
20260430T12Z_MSC_GDPS_AirTemp_IsbL-0500_LatLon0.15_PT135H.grib2 2026-04-30 16:25 1.0M
20260430T12Z_MSC_GDPS_AirTemp_IsbL-0550_LatLon0.15_PT135H.grib2 2026-04-30 16:25 1.0M
20260430T12Z_MSC_GDPS_AirTemp_IsbL-0600_LatLon0.15_PT135H.grib2 2026-04-30 16:25 886K
20260430T12Z_MSC_GDPS_AirTemp_IsbL-0650_LatLon0.15_PT135H.grib2 2026-04-30 16:25 914K
20260430T12Z_MSC_GDPS_AirTemp_IsbL-0700_LatLon0.15_PT135H.grib2 2026-04-30 16:25 948K
20260430T12Z_MSC_GDPS_AirTemp_IsbL-0750_LatLon0.15_PT135H.grib2 2026-04-30 16:25 1.0M
20260430T12Z_MSC_GDPS_AirTemp_IsbL-0800_LatLon0.15_PT135H.grib2 2026-04-30 16:25 1.0M
20260430T12Z_MSC_GDPS_AirTemp_IsbL-0850_LatLon0.15_PT135H.grib2 2026-04-30 16:25 1.1M
20260430T12Z_MSC_GDPS_AirTemp_IsbL-0875_LatLon0.15_PT135H.grib2 2026-04-30 16:25 1.2M
20260430T12Z_MSC_GDPS_AirTemp_IsbL-0900_LatLon0.15_PT135H.grib2 2026-04-30 16:25 1.2M
20260430T12Z_MSC_GDPS_AirTemp_IsbL-0925_LatLon0.15_PT135H.grib2 2026-04-30 16:25 1.1M
20260430T12Z_MSC_GDPS_AirTemp_IsbL-0950_LatLon0.15_PT135H.grib2 2026-04-30 16:25 1.1M
20260430T12Z_MSC_GDPS_AirTemp_IsbL-0970_LatLon0.15_PT135H.grib2 2026-04-30 16:25 1.1M
20260430T12Z_MSC_GDPS_AirTemp_IsbL-0985_LatLon0.15_PT135H.grib2 2026-04-30 16:25 1.1M
20260430T12Z_MSC_GDPS_AirTemp_IsbL-1000_LatLon0.15_PT135H.grib2 2026-04-30 16:25 1.1M
20260430T12Z_MSC_GDPS_AirTemp_IsbL-1015_LatLon0.15_PT135H.grib2 2026-04-30 16:25 1.1M
20260430T12Z_MSC_GDPS_Albedo_Sfc_LatLon0.15_PT135H.grib2 2026-04-30 16:25 243K
20260430T12Z_MSC_GDPS_CAPE_Sfc_LatLon0.15_PT135H.grib2 2026-04-30 16:25 4.0M
20260430T12Z_MSC_GDPS_CIN_Sfc_LatLon0.15_PT135H.grib2 2026-04-30 16:25 2.8M
20260430T12Z_MSC_GDPS_CloudWater_EAtm_LatLon0.15_PT135H.grib2 2026-04-30 16:25 530K
20260430T12Z_MSC_GDPS_ConvectivePrecip-Accum_Sfc_LatLon0.15_PT135H.grib2 2026-04-30 16:25 3.6M
20260430T12Z_MSC_GDPS_DewPointDepression_AGL-2m_LatLon0.15_PT135H.grib2 2026-04-30 16:25 767K
20260430T12Z_MSC_GDPS_DewPointDepression_IsbL-0010_LatLon0.15_PT135H.grib2 2026-04-30 16:25 72K
20260430T12Z_MSC_GDPS_DewPointDepression_IsbL-0020_LatLon0.15_PT135H.grib2 2026-04-30 16:25 76K
20260430T12Z_MSC_GDPS_DewPointDepression_IsbL-0030_LatLon0.15_PT135H.grib2 2026-04-30 16:25 87K
20260430T12Z_MSC_GDPS_DewPointDepression_IsbL-0050_LatLon0.15_PT135H.grib2 2026-04-30 16:25 381K
20260430T12Z_MSC_GDPS_DewPointDepression_IsbL-0100_LatLon0.15_PT135H.grib2 2026-04-30 16:25 396K
20260430T12Z_MSC_GDPS_DewPointDepression_IsbL-0150_LatLon0.15_PT135H.grib2 2026-04-30 16:25 481K
20260430T12Z_MSC_GDPS_DewPointDepression_IsbL-0175_LatLon0.15_PT135H.grib2 2026-04-30 16:25 591K
20260430T12Z_MSC_GDPS_DewPointDepression_IsbL-0200_LatLon0.15_PT135H.grib2 2026-04-30 16:25 694K
20260430T12Z_MSC_GDPS_DewPointDepression_IsbL-0225_LatLon0.15_PT135H.grib2 2026-04-30 16:25 766K
20260430T12Z_MSC_GDPS_DewPointDepression_IsbL-0250_LatLon0.15_PT135H.grib2 2026-04-30 16:25 857K
20260430T12Z_MSC_GDPS_DewPointDepression_IsbL-0275_LatLon0.15_PT135H.grib2 2026-04-30 16:25 879K
20260430T12Z_MSC_GDPS_DewPointDepression_IsbL-0300_LatLon0.15_PT135H.grib2 2026-04-30 16:25 924K
20260430T12Z_MSC_GDPS_DewPointDepression_IsbL-0350_LatLon0.15_PT135H.grib2 2026-04-30 16:25 958K
20260430T12Z_MSC_GDPS_DewPointDepression_IsbL-0400_LatLon0.15_PT135H.grib2 2026-04-30 16:25 1.0M
20260430T12Z_MSC_GDPS_DewPointDepression_IsbL-0450_LatLon0.15_PT135H.grib2 2026-04-30 16:25 1.0M
20260430T12Z_MSC_GDPS_DewPointDepression_IsbL-0500_LatLon0.15_PT135H.grib2 2026-04-30 16:25 1.0M
20260430T12Z_MSC_GDPS_DewPointDepression_IsbL-0550_LatLon0.15_PT135H.grib2 2026-04-30 16:25 1.0M
20260430T12Z_MSC_GDPS_DewPointDepression_IsbL-0600_LatLon0.15_PT135H.grib2 2026-04-30 16:25 1.0M
20260430T12Z_MSC_GDPS_DewPointDepression_IsbL-0650_LatLon0.15_PT135H.grib2 2026-04-30 16:25 1.0M
20260430T12Z_MSC_GDPS_DewPointDepression_IsbL-0700_LatLon0.15_PT135H.grib2 2026-04-30 16:25 1.1M
20260430T12Z_MSC_GDPS_DewPointDepression_IsbL-0750_LatLon0.15_PT135H.grib2 2026-04-30 16:25 1.1M
20260430T12Z_MSC_GDPS_DewPointDepression_IsbL-0800_LatLon0.15_PT135H.grib2 2026-04-30 16:25 1.1M
20260430T12Z_MSC_GDPS_DewPointDepression_IsbL-0850_LatLon0.15_PT135H.grib2 2026-04-30 16:25 1.2M
20260430T12Z_MSC_GDPS_DewPointDepression_IsbL-0875_LatLon0.15_PT135H.grib2 2026-04-30 16:25 1.1M
20260430T12Z_MSC_GDPS_DewPointDepression_IsbL-0900_LatLon0.15_PT135H.grib2 2026-04-30 16:25 1.1M
20260430T12Z_MSC_GDPS_DewPointDepression_IsbL-0925_LatLon0.15_PT135H.grib2 2026-04-30 16:25 1.0M
20260430T12Z_MSC_GDPS_DewPointDepression_IsbL-0950_LatLon0.15_PT135H.grib2 2026-04-30 16:25 1.0M
20260430T12Z_MSC_GDPS_DewPointDepression_IsbL-0970_LatLon0.15_PT135H.grib2 2026-04-30 16:25 1.0M
20260430T12Z_MSC_GDPS_DewPointDepression_IsbL-0985_LatLon0.15_PT135H.grib2 2026-04-30 16:25 1.0M
20260430T12Z_MSC_GDPS_DewPointDepression_IsbL-1000_LatLon0.15_PT135H.grib2 2026-04-30 16:25 1.0M
20260430T12Z_MSC_GDPS_DewPointDepression_IsbL-1015_LatLon0.15_PT135H.grib2 2026-04-30 16:25 919K
20260430T12Z_MSC_GDPS_DewPoint_AGL-2m_LatLon0.15_PT135H.grib2 2026-04-30 16:25 600K
20260430T12Z_MSC_GDPS_DownwardLongwaveRadiationFlux-Accum_Sfc_LatLon0.15_PT135H.grib2 2026-04-30 16:25 828K
20260430T12Z_MSC_GDPS_DownwardShortwaveRadiationFlux-Accum_NTAtm_LatLon0.15_PT135H.grib2 2026-04-30 16:25 193K
20260430T12Z_MSC_GDPS_DownwardShortwaveRadiationFlux-Accum_Sfc_LatLon0.15_PT135H.grib2 2026-04-30 16:25 1.0M
20260430T12Z_MSC_GDPS_FreezingRain-Accum1h_Sfc_LatLon0.15_PT135H.grib2 2026-04-30 16:25 30K
20260430T12Z_MSC_GDPS_FreezingRain-Accum3h_Sfc_LatLon0.15_PT135H.grib2 2026-04-30 16:25 43K
20260430T12Z_MSC_GDPS_FreezingRain-Accum_Sfc_LatLon0.15_PT135H.grib2 2026-04-30 16:25 439K
20260430T12Z_MSC_GDPS_GeopotentialHeight_IsbL-0001_LatLon0.15_PT135H.grib2 2026-04-30 16:25 415K
20260430T12Z_MSC_GDPS_GeopotentialHeight_IsbL-0005_LatLon0.15_PT135H.grib2 2026-04-30 16:25 484K
20260430T12Z_MSC_GDPS_GeopotentialHeight_IsbL-0010_LatLon0.15_PT135H.grib2 2026-04-30 16:25 474K
20260430T12Z_MSC_GDPS_GeopotentialHeight_IsbL-0020_LatLon0.15_PT135H.grib2 2026-04-30 16:25 415K
20260430T12Z_MSC_GDPS_GeopotentialHeight_IsbL-0030_LatLon0.15_PT135H.grib2 2026-04-30 16:25 565K
20260430T12Z_MSC_GDPS_GeopotentialHeight_IsbL-0050_LatLon0.15_PT135H.grib2 2026-04-30 16:25 564K
20260430T12Z_MSC_GDPS_GeopotentialHeight_IsbL-0100_LatLon0.15_PT135H.grib2 2026-04-30 16:25 602K
20260430T12Z_MSC_GDPS_GeopotentialHeight_IsbL-0150_LatLon0.15_PT135H.grib2 2026-04-30 16:25 623K
20260430T12Z_MSC_GDPS_GeopotentialHeight_IsbL-0175_LatLon0.15_PT135H.grib2 2026-04-30 16:25 629K
20260430T12Z_MSC_GDPS_GeopotentialHeight_IsbL-0200_LatLon0.15_PT135H.grib2 2026-04-30 16:25 635K
20260430T12Z_MSC_GDPS_GeopotentialHeight_IsbL-0225_LatLon0.15_PT135H.grib2 2026-04-30 16:25 632K
20260430T12Z_MSC_GDPS_GeopotentialHeight_IsbL-0250_LatLon0.15_PT135H.grib2 2026-04-30 16:25 638K
20260430T12Z_MSC_GDPS_GeopotentialHeight_IsbL-0275_LatLon0.15_PT135H.grib2 2026-04-30 16:25 639K
20260430T12Z_MSC_GDPS_GeopotentialHeight_IsbL-0300_LatLon0.15_PT135H.grib2 2026-04-30 16:25 631K
20260430T12Z_MSC_GDPS_GeopotentialHeight_IsbL-0350_LatLon0.15_PT135H.grib2 2026-04-30 16:25 626K
20260430T12Z_MSC_GDPS_GeopotentialHeight_IsbL-0400_LatLon0.15_PT135H.grib2 2026-04-30 16:25 618K
20260430T12Z_MSC_GDPS_GeopotentialHeight_IsbL-0450_LatLon0.15_PT135H.grib2 2026-04-30 16:25 608K
20260430T12Z_MSC_GDPS_GeopotentialHeight_IsbL-0500_LatLon0.15_PT135H.grib2 2026-04-30 16:25 531K
20260430T12Z_MSC_GDPS_GeopotentialHeight_IsbL-0550_LatLon0.15_PT135H.grib2 2026-04-30 16:25 526K
20260430T12Z_MSC_GDPS_GeopotentialHeight_IsbL-0600_LatLon0.15_PT135H.grib2 2026-04-30 16:25 686K
20260430T12Z_MSC_GDPS_GeopotentialHeight_IsbL-0650_LatLon0.15_PT135H.grib2 2026-04-30 16:25 686K
20260430T12Z_MSC_GDPS_GeopotentialHeight_IsbL-0700_LatLon0.15_PT135H.grib2 2026-04-30 16:25 682K
20260430T12Z_MSC_GDPS_GeopotentialHeight_IsbL-0750_LatLon0.15_PT135H.grib2 2026-04-30 16:25 688K
20260430T12Z_MSC_GDPS_GeopotentialHeight_IsbL-0800_LatLon0.15_PT135H.grib2 2026-04-30 16:25 703K
20260430T12Z_MSC_GDPS_GeopotentialHeight_IsbL-0850_LatLon0.15_PT135H.grib2 2026-04-30 16:25 716K
20260430T12Z_MSC_GDPS_GeopotentialHeight_IsbL-0875_LatLon0.15_PT135H.grib2 2026-04-30 16:25 717K
20260430T12Z_MSC_GDPS_GeopotentialHeight_IsbL-0900_LatLon0.15_PT135H.grib2 2026-04-30 16:25 724K
20260430T12Z_MSC_GDPS_GeopotentialHeight_IsbL-0925_LatLon0.15_PT135H.grib2 2026-04-30 16:25 732K
20260430T12Z_MSC_GDPS_GeopotentialHeight_IsbL-0950_LatLon0.15_PT135H.grib2 2026-04-30 16:25 741K
20260430T12Z_MSC_GDPS_GeopotentialHeight_IsbL-0970_LatLon0.15_PT135H.grib2 2026-04-30 16:25 751K
20260430T12Z_MSC_GDPS_GeopotentialHeight_IsbL-0985_LatLon0.15_PT135H.grib2 2026-04-30 16:25 765K
20260430T12Z_MSC_GDPS_GeopotentialHeight_IsbL-1000_LatLon0.15_PT135H.grib2 2026-04-30 16:25 785K
20260430T12Z_MSC_GDPS_GeopotentialHeight_IsbL-1015_LatLon0.15_PT135H.grib2 2026-04-30 16:25 807K
20260430T12Z_MSC_GDPS_Humidex_Sfc_LatLon0.15_PT135H.grib2 2026-04-30 16:25 5.3M
20260430T12Z_MSC_GDPS_IcePellets-Accum1h_Sfc_LatLon0.15_PT135H.grib2 2026-04-30 16:25 18K
20260430T12Z_MSC_GDPS_IcePellets-Accum3h_Sfc_LatLon0.15_PT135H.grib2 2026-04-30 16:25 23K
20260430T12Z_MSC_GDPS_IcePellets-Accum_Sfc_LatLon0.15_PT135H.grib2 2026-04-30 16:25 138K
20260430T12Z_MSC_GDPS_KIndex_Sfc_LatLon0.15_PT135H.grib2 2026-04-30 16:25 6.5M
20260430T12Z_MSC_GDPS_LatentHeatNetFlux_Sfc_LatLon0.15_PT135H.grib2 2026-04-30 16:25 690K
20260430T12Z_MSC_GDPS_LiftedIndex-MU-VT_IsbL-0500_LatLon0.15_PT135H.grib2 2026-04-30 16:25 5.4M
20260430T12Z_MSC_GDPS_NetLongwaveRadiationFlux-Accum_Sfc_LatLon0.15_PT135H.grib2 2026-04-30 16:25 1.0M
20260430T12Z_MSC_GDPS_NetShortwaveRadiationFlux-Accum_Sfc_LatLon0.15_PT135H.grib2 2026-04-30 16:25 1.0M
20260430T12Z_MSC_GDPS_O3MixingRatio_Sfc_LatLon0.15_PT135H.grib2 2026-04-30 16:45 2.2M
20260430T12Z_MSC_GDPS_O3_EAtm_LatLon0.15_PT135H.grib2 2026-04-30 16:45 2.4M
20260430T12Z_MSC_GDPS_PlanetaryBoundaryLayerHeight_Sfc_LatLon0.15_PT135H.grib2 2026-04-30 16:25 2.8M
20260430T12Z_MSC_GDPS_Precip-Accum1h_Sfc_LatLon0.15_PT135H.grib2 2026-04-30 16:25 3.2M
20260430T12Z_MSC_GDPS_Precip-Accum3h_Sfc_LatLon0.15_PT135H.grib2 2026-04-30 16:25 3.4M
20260430T12Z_MSC_GDPS_Precip-Accum_Sfc_LatLon0.15_PT135H.grib2 2026-04-30 16:25 5.2M
20260430T12Z_MSC_GDPS_PrecipRate_Sfc_LatLon0.15_PT135H.grib2 2026-04-30 16:25 3.0M
20260430T12Z_MSC_GDPS_PrecipType-Instant_Sfc_LatLon0.15_PT135H.grib2 2026-04-30 16:25 1.5M
20260430T12Z_MSC_GDPS_Pressure_MSL_LatLon0.15_PT135H.grib2 2026-04-30 16:25 717K
20260430T12Z_MSC_GDPS_Pressure_PVU-1.5_LatLon0.15_PT135H.grib2 2026-04-30 16:25 5.8M
20260430T12Z_MSC_GDPS_Pressure_PVU-1_LatLon0.15_PT135H.grib2 2026-04-30 16:25 6.0M
20260430T12Z_MSC_GDPS_Pressure_PVU-2_LatLon0.15_PT135H.grib2 2026-04-30 16:25 5.6M
20260430T12Z_MSC_GDPS_Pressure_Sfc_LatLon0.15_PT135H.grib2 2026-04-30 16:25 1.1M
20260430T12Z_MSC_GDPS_RadiativeTemp_Sfc_LatLon0.15_PT135H.grib2 2026-04-30 16:25 666K
20260430T12Z_MSC_GDPS_Rain-Accum1h_Sfc_LatLon0.15_PT135H.grib2 2026-04-30 16:25 1.6M
20260430T12Z_MSC_GDPS_Rain-Accum3h_Sfc_LatLon0.15_PT135H.grib2 2026-04-30 16:25 1.7M
20260430T12Z_MSC_GDPS_Rain-Accum_Sfc_LatLon0.15_PT135H.grib2 2026-04-30 16:25 4.0M
20260430T12Z_MSC_GDPS_RelativeHumidity_AGL-2m_LatLon0.15_PT135H.grib2 2026-04-30 16:25 1.1M
20260430T12Z_MSC_GDPS_RelativeHumidity_IsbL-0010_LatLon0.15_PT135H.grib2 2026-04-30 16:25 195K
20260430T12Z_MSC_GDPS_RelativeHumidity_IsbL-0020_LatLon0.15_PT135H.grib2 2026-04-30 16:25 162K
20260430T12Z_MSC_GDPS_RelativeHumidity_IsbL-0030_LatLon0.15_PT135H.grib2 2026-04-30 16:25 267K
20260430T12Z_MSC_GDPS_RelativeHumidity_IsbL-0050_LatLon0.15_PT135H.grib2 2026-04-30 16:25 518K
20260430T12Z_MSC_GDPS_RelativeHumidity_IsbL-0100_LatLon0.15_PT135H.grib2 2026-04-30 16:25 500K
20260430T12Z_MSC_GDPS_RelativeHumidity_IsbL-0150_LatLon0.15_PT135H.grib2 2026-04-30 16:25 663K
20260430T12Z_MSC_GDPS_RelativeHumidity_IsbL-0175_LatLon0.15_PT135H.grib2 2026-04-30 16:25 797K
20260430T12Z_MSC_GDPS_RelativeHumidity_IsbL-0200_LatLon0.15_PT135H.grib2 2026-04-30 16:25 709K
20260430T12Z_MSC_GDPS_RelativeHumidity_IsbL-0225_LatLon0.15_PT135H.grib2 2026-04-30 16:25 784K
20260430T12Z_MSC_GDPS_RelativeHumidity_IsbL-0250_LatLon0.15_PT135H.grib2 2026-04-30 16:25 858K
20260430T12Z_MSC_GDPS_RelativeHumidity_IsbL-0275_LatLon0.15_PT135H.grib2 2026-04-30 16:25 880K
20260430T12Z_MSC_GDPS_RelativeHumidity_IsbL-0300_LatLon0.15_PT135H.grib2 2026-04-30 16:25 921K
20260430T12Z_MSC_GDPS_RelativeHumidity_IsbL-0350_LatLon0.15_PT135H.grib2 2026-04-30 16:25 941K
20260430T12Z_MSC_GDPS_RelativeHumidity_IsbL-0400_LatLon0.15_PT135H.grib2 2026-04-30 16:25 967K
20260430T12Z_MSC_GDPS_RelativeHumidity_IsbL-0450_LatLon0.15_PT135H.grib2 2026-04-30 16:25 1.0M
20260430T12Z_MSC_GDPS_RelativeHumidity_IsbL-0500_LatLon0.15_PT135H.grib2 2026-04-30 16:25 1.0M
20260430T12Z_MSC_GDPS_RelativeHumidity_IsbL-0550_LatLon0.15_PT135H.grib2 2026-04-30 16:25 1.0M
20260430T12Z_MSC_GDPS_RelativeHumidity_IsbL-0600_LatLon0.15_PT135H.grib2 2026-04-30 16:25 1.0M
20260430T12Z_MSC_GDPS_RelativeHumidity_IsbL-0650_LatLon0.15_PT135H.grib2 2026-04-30 16:25 1.0M
20260430T12Z_MSC_GDPS_RelativeHumidity_IsbL-0700_LatLon0.15_PT135H.grib2 2026-04-30 16:25 1.1M
20260430T12Z_MSC_GDPS_RelativeHumidity_IsbL-0750_LatLon0.15_PT135H.grib2 2026-04-30 16:25 1.2M
20260430T12Z_MSC_GDPS_RelativeHumidity_IsbL-0800_LatLon0.15_PT135H.grib2 2026-04-30 16:25 1.2M
20260430T12Z_MSC_GDPS_RelativeHumidity_IsbL-0850_LatLon0.15_PT135H.grib2 2026-04-30 16:25 1.3M
20260430T12Z_MSC_GDPS_RelativeHumidity_IsbL-0875_LatLon0.15_PT135H.grib2 2026-04-30 16:25 1.3M
20260430T12Z_MSC_GDPS_RelativeHumidity_IsbL-0900_LatLon0.15_PT135H.grib2 2026-04-30 16:25 1.2M
20260430T12Z_MSC_GDPS_RelativeHumidity_IsbL-0925_LatLon0.15_PT135H.grib2 2026-04-30 16:25 1.2M
20260430T12Z_MSC_GDPS_RelativeHumidity_IsbL-0950_LatLon0.15_PT135H.grib2 2026-04-30 16:25 1.2M
20260430T12Z_MSC_GDPS_RelativeHumidity_IsbL-0970_LatLon0.15_PT135H.grib2 2026-04-30 16:25 1.2M
20260430T12Z_MSC_GDPS_RelativeHumidity_IsbL-0985_LatLon0.15_PT135H.grib2 2026-04-30 16:25 1.1M
20260430T12Z_MSC_GDPS_RelativeHumidity_IsbL-1000_LatLon0.15_PT135H.grib2 2026-04-30 16:25 1.1M
20260430T12Z_MSC_GDPS_RelativeHumidity_IsbL-1015_LatLon0.15_PT135H.grib2 2026-04-30 16:25 1.0M
20260430T12Z_MSC_GDPS_RelativeVorticity_IsbL-0200_LatLon0.15_PT135H.grib2 2026-04-30 16:25 1.5M
20260430T12Z_MSC_GDPS_RelativeVorticity_IsbL-0250_LatLon0.15_PT135H.grib2 2026-04-30 16:25 1.3M
20260430T12Z_MSC_GDPS_RelativeVorticity_IsbL-0500_LatLon0.15_PT135H.grib2 2026-04-30 16:25 1.2M
20260430T12Z_MSC_GDPS_RelativeVorticity_IsbL-0700_LatLon0.15_PT135H.grib2 2026-04-30 16:25 1.3M
20260430T12Z_MSC_GDPS_RelativeVorticity_IsbL-0850_LatLon0.15_PT135H.grib2 2026-04-30 16:25 1.6M
20260430T12Z_MSC_GDPS_Runoff-Accum_Sfc_LatLon0.15_PT135H.grib2 2026-04-30 16:25 149K
20260430T12Z_MSC_GDPS_SensibleHeatNetFlux_Sfc_LatLon0.15_PT135H.grib2 2026-04-30 16:25 477K
20260430T12Z_MSC_GDPS_ShowalterIndex_IsbL-0500_LatLon0.15_PT135H.grib2 2026-04-30 16:25 6.2M
20260430T12Z_MSC_GDPS_Snow-Accum1h_Sfc_LatLon0.15_PT135H.grib2 2026-04-30 16:25 1.3M
20260430T12Z_MSC_GDPS_Snow-Accum3h_Sfc_LatLon0.15_PT135H.grib2 2026-04-30 16:25 1.1M
20260430T12Z_MSC_GDPS_Snow-Accum_Sfc_LatLon0.15_PT135H.grib2 2026-04-30 16:25 2.1M
20260430T12Z_MSC_GDPS_SnowDensity_Sfc_LatLon0.15_PT135H.grib2 2026-04-30 16:25 263K
20260430T12Z_MSC_GDPS_SnowDepth_Sfc_LatLon0.15_PT135H.grib2 2026-04-30 16:25 1.7M
20260430T12Z_MSC_GDPS_SoilTemp_DBS-0to10cm_LatLon0.15_PT135H.grib2 2026-04-30 16:25 513K
20260430T12Z_MSC_GDPS_SoilTemp_Sfc_LatLon0.15_PT135H.grib2 2026-04-30 16:25 584K
20260430T12Z_MSC_GDPS_SoilVolumetricIceContent_Sfc_LatLon0.15_PT135H.grib2 2026-04-30 16:25 190K
20260430T12Z_MSC_GDPS_SoilVolumetricWaterContent_DBS-0to10cm_LatLon0.15_PT135H.grib2 2026-04-30 16:25 592K
20260430T12Z_MSC_GDPS_SoilVolumetricWaterContent_DBS-0to1cm_LatLon0.15_PT135H.grib2 2026-04-30 16:25 652K
20260430T12Z_MSC_GDPS_SpecificHumidity_AGL-120m_LatLon0.15_PT135H.grib2 2026-04-30 16:25 1.1M
20260430T12Z_MSC_GDPS_SpecificHumidity_AGL-2m_LatLon0.15_PT135H.grib2 2026-04-30 16:25 1.2M
20260430T12Z_MSC_GDPS_SpecificHumidity_AGL-40m_LatLon0.15_PT135H.grib2 2026-04-30 16:25 1.1M
20260430T12Z_MSC_GDPS_SpecificHumidity_AGL-80m_LatLon0.15_PT135H.grib2 2026-04-30 16:25 1.1M
20260430T12Z_MSC_GDPS_SpecificHumidity_IsbL-0001_LatLon0.15_PT135H.grib2 2026-04-30 16:25 1.2M
20260430T12Z_MSC_GDPS_SpecificHumidity_IsbL-0005_LatLon0.15_PT135H.grib2 2026-04-30 16:25 1.1M
20260430T12Z_MSC_GDPS_SpecificHumidity_IsbL-0010_LatLon0.15_PT135H.grib2 2026-04-30 16:25 1.2M
20260430T12Z_MSC_GDPS_SpecificHumidity_IsbL-0020_LatLon0.15_PT135H.grib2 2026-04-30 16:25 1.3M
20260430T12Z_MSC_GDPS_SpecificHumidity_IsbL-0030_LatLon0.15_PT135H.grib2 2026-04-30 16:25 1.6M
20260430T12Z_MSC_GDPS_SpecificHumidity_IsbL-0050_LatLon0.15_PT135H.grib2 2026-04-30 16:25 1.6M
20260430T12Z_MSC_GDPS_SpecificHumidity_IsbL-0100_LatLon0.15_PT135H.grib2 2026-04-30 16:25 1.3M
20260430T12Z_MSC_GDPS_SpecificHumidity_IsbL-0150_LatLon0.15_PT135H.grib2 2026-04-30 16:25 1.3M
20260430T12Z_MSC_GDPS_SpecificHumidity_IsbL-0175_LatLon0.15_PT135H.grib2 2026-04-30 16:25 1.2M
20260430T12Z_MSC_GDPS_SpecificHumidity_IsbL-0200_LatLon0.15_PT135H.grib2 2026-04-30 16:25 1.3M
20260430T12Z_MSC_GDPS_SpecificHumidity_IsbL-0225_LatLon0.15_PT135H.grib2 2026-04-30 16:25 1.3M
20260430T12Z_MSC_GDPS_SpecificHumidity_IsbL-0250_LatLon0.15_PT135H.grib2 2026-04-30 16:25 1.4M
20260430T12Z_MSC_GDPS_SpecificHumidity_IsbL-0275_LatLon0.15_PT135H.grib2 2026-04-30 16:25 1.3M
20260430T12Z_MSC_GDPS_SpecificHumidity_IsbL-0300_LatLon0.15_PT135H.grib2 2026-04-30 16:25 1.2M
20260430T12Z_MSC_GDPS_SpecificHumidity_IsbL-0350_LatLon0.15_PT135H.grib2 2026-04-30 16:25 1.2M
20260430T12Z_MSC_GDPS_SpecificHumidity_IsbL-0400_LatLon0.15_PT135H.grib2 2026-04-30 16:25 1.5M
20260430T12Z_MSC_GDPS_SpecificHumidity_IsbL-0450_LatLon0.15_PT135H.grib2 2026-04-30 16:25 1.3M
20260430T12Z_MSC_GDPS_SpecificHumidity_IsbL-0500_LatLon0.15_PT135H.grib2 2026-04-30 16:25 1.4M
20260430T12Z_MSC_GDPS_SpecificHumidity_IsbL-0550_LatLon0.15_PT135H.grib2 2026-04-30 16:25 1.6M
20260430T12Z_MSC_GDPS_SpecificHumidity_IsbL-0600_LatLon0.15_PT135H.grib2 2026-04-30 16:25 1.7M
20260430T12Z_MSC_GDPS_SpecificHumidity_IsbL-0650_LatLon0.15_PT135H.grib2 2026-04-30 16:25 1.5M
20260430T12Z_MSC_GDPS_SpecificHumidity_IsbL-0700_LatLon0.15_PT135H.grib2 2026-04-30 16:25 1.6M
20260430T12Z_MSC_GDPS_SpecificHumidity_IsbL-0750_LatLon0.15_PT135H.grib2 2026-04-30 16:25 1.7M
20260430T12Z_MSC_GDPS_SpecificHumidity_IsbL-0800_LatLon0.15_PT135H.grib2 2026-04-30 16:25 1.8M
20260430T12Z_MSC_GDPS_SpecificHumidity_IsbL-0850_LatLon0.15_PT135H.grib2 2026-04-30 16:25 1.9M
20260430T12Z_MSC_GDPS_SpecificHumidity_IsbL-0875_LatLon0.15_PT135H.grib2 2026-04-30 16:25 1.9M
20260430T12Z_MSC_GDPS_SpecificHumidity_IsbL-0900_LatLon0.15_PT135H.grib2 2026-04-30 16:25 1.9M
20260430T12Z_MSC_GDPS_SpecificHumidity_IsbL-0925_LatLon0.15_PT135H.grib2 2026-04-30 16:25 1.6M
20260430T12Z_MSC_GDPS_SpecificHumidity_IsbL-0950_LatLon0.15_PT135H.grib2 2026-04-30 16:25 1.5M
20260430T12Z_MSC_GDPS_SpecificHumidity_IsbL-0970_LatLon0.15_PT135H.grib2 2026-04-30 16:25 1.5M
20260430T12Z_MSC_GDPS_SpecificHumidity_IsbL-0985_LatLon0.15_PT135H.grib2 2026-04-30 16:25 1.5M
20260430T12Z_MSC_GDPS_SpecificHumidity_IsbL-1000_LatLon0.15_PT135H.grib2 2026-04-30 16:25 1.5M
20260430T12Z_MSC_GDPS_SpecificHumidity_IsbL-1015_LatLon0.15_PT135H.grib2 2026-04-30 16:25 1.5M
20260430T12Z_MSC_GDPS_SpecificHumidity_Sfc_LatLon0.15_PT135H.grib2 2026-04-30 16:25 640K
20260430T12Z_MSC_GDPS_Thickness_IsbL-0850to0700_LatLon0.15_PT135H.grib2 2026-04-30 16:25 468K
20260430T12Z_MSC_GDPS_Thickness_IsbL-1000to0500_LatLon0.15_PT135H.grib2 2026-04-30 16:25 375K
20260430T12Z_MSC_GDPS_Thickness_IsbL-1000to0850_LatLon0.15_PT135H.grib2 2026-04-30 16:25 490K
20260430T12Z_MSC_GDPS_TotalCloudCover_Sfc_LatLon0.15_PT135H.grib2 2026-04-30 16:25 819K
20260430T12Z_MSC_GDPS_TotalTotalsIndex_Sfc_LatLon0.15_PT135H.grib2 2026-04-30 16:25 6.2M
20260430T12Z_MSC_GDPS_UVIndex-ClearSky_Sfc_LatLon0.15_PT135H.grib2 2026-04-30 16:45 1.0M
20260430T12Z_MSC_GDPS_UVIndex_Sfc_LatLon0.15_PT135H.grib2 2026-04-30 16:45 1.5M
20260430T12Z_MSC_GDPS_UpwardLongwaveRadiationFlux_NTAtm_LatLon0.15_PT135H.grib2 2026-04-30 16:25 1.0M
20260430T12Z_MSC_GDPS_VerticalVelocity_IsbL-0200_LatLon0.15_PT135H.grib2 2026-04-30 16:25 1.2M
20260430T12Z_MSC_GDPS_VerticalVelocity_IsbL-0250_LatLon0.15_PT135H.grib2 2026-04-30 16:25 1.0M
20260430T12Z_MSC_GDPS_VerticalVelocity_IsbL-0500_LatLon0.15_PT135H.grib2 2026-04-30 16:25 1.0M
20260430T12Z_MSC_GDPS_VerticalVelocity_IsbL-0600_LatLon0.15_PT135H.grib2 2026-04-30 16:25 1.3M
20260430T12Z_MSC_GDPS_VerticalVelocity_IsbL-0700_LatLon0.15_PT135H.grib2 2026-04-30 16:25 1.1M
20260430T12Z_MSC_GDPS_VerticalVelocity_IsbL-0850_LatLon0.15_PT135H.grib2 2026-04-30 16:25 1.3M
20260430T12Z_MSC_GDPS_WindChill_Sfc_LatLon0.15_PT135H.grib2 2026-04-30 16:25 5.3M
20260430T12Z_MSC_GDPS_WindDir_AGL-10m_LatLon0.15_PT135H.grib2 2026-04-30 16:25 1.3M
20260430T12Z_MSC_GDPS_WindDir_AGL-120m_LatLon0.15_PT135H.grib2 2026-04-30 16:25 1.3M
20260430T12Z_MSC_GDPS_WindDir_AGL-40m_LatLon0.15_PT135H.grib2 2026-04-30 16:25 1.4M
20260430T12Z_MSC_GDPS_WindDir_AGL-80m_LatLon0.15_PT135H.grib2 2026-04-30 16:25 1.3M
20260430T12Z_MSC_GDPS_WindDir_IsbL-0001_LatLon0.15_PT135H.grib2 2026-04-30 16:25 664K
20260430T12Z_MSC_GDPS_WindDir_IsbL-0005_LatLon0.15_PT135H.grib2 2026-04-30 16:25 801K
20260430T12Z_MSC_GDPS_WindDir_IsbL-0010_LatLon0.15_PT135H.grib2 2026-04-30 16:25 831K
20260430T12Z_MSC_GDPS_WindDir_IsbL-0020_LatLon0.15_PT135H.grib2 2026-04-30 16:25 938K
20260430T12Z_MSC_GDPS_WindDir_IsbL-0030_LatLon0.15_PT135H.grib2 2026-04-30 16:25 933K
20260430T12Z_MSC_GDPS_WindDir_IsbL-0050_LatLon0.15_PT135H.grib2 2026-04-30 16:25 954K
20260430T12Z_MSC_GDPS_WindDir_IsbL-0100_LatLon0.15_PT135H.grib2 2026-04-30 16:25 1.0M
20260430T12Z_MSC_GDPS_WindDir_IsbL-0150_LatLon0.15_PT135H.grib2 2026-04-30 16:25 1.0M
20260430T12Z_MSC_GDPS_WindDir_IsbL-0175_LatLon0.15_PT135H.grib2 2026-04-30 16:25 1.0M
20260430T12Z_MSC_GDPS_WindDir_IsbL-0200_LatLon0.15_PT135H.grib2 2026-04-30 16:25 1.1M
20260430T12Z_MSC_GDPS_WindDir_IsbL-0225_LatLon0.15_PT135H.grib2 2026-04-30 16:25 1.1M
20260430T12Z_MSC_GDPS_WindDir_IsbL-0250_LatLon0.15_PT135H.grib2 2026-04-30 16:25 1.1M
20260430T12Z_MSC_GDPS_WindDir_IsbL-0275_LatLon0.15_PT135H.grib2 2026-04-30 16:25 1.2M
20260430T12Z_MSC_GDPS_WindDir_IsbL-0300_LatLon0.15_PT135H.grib2 2026-04-30 16:25 1.2M
20260430T12Z_MSC_GDPS_WindDir_IsbL-0350_LatLon0.15_PT135H.grib2 2026-04-30 16:25 1.2M
20260430T12Z_MSC_GDPS_WindDir_IsbL-0400_LatLon0.15_PT135H.grib2 2026-04-30 16:25 1.3M
20260430T12Z_MSC_GDPS_WindDir_IsbL-0450_LatLon0.15_PT135H.grib2 2026-04-30 16:25 1.3M
20260430T12Z_MSC_GDPS_WindDir_IsbL-0500_LatLon0.15_PT135H.grib2 2026-04-30 16:25 1.4M
20260430T12Z_MSC_GDPS_WindDir_IsbL-0550_LatLon0.15_PT135H.grib2 2026-04-30 16:25 1.4M
20260430T12Z_MSC_GDPS_WindDir_IsbL-0600_LatLon0.15_PT135H.grib2 2026-04-30 16:25 1.4M
20260430T12Z_MSC_GDPS_WindDir_IsbL-0650_LatLon0.15_PT135H.grib2 2026-04-30 16:25 1.5M
20260430T12Z_MSC_GDPS_WindDir_IsbL-0700_LatLon0.15_PT135H.grib2 2026-04-30 16:25 1.6M
20260430T12Z_MSC_GDPS_WindDir_IsbL-0750_LatLon0.15_PT135H.grib2 2026-04-30 16:25 1.6M
20260430T12Z_MSC_GDPS_WindDir_IsbL-0800_LatLon0.15_PT135H.grib2 2026-04-30 16:25 1.8M
20260430T12Z_MSC_GDPS_WindDir_IsbL-0850_LatLon0.15_PT135H.grib2 2026-04-30 16:25 1.9M
20260430T12Z_MSC_GDPS_WindDir_IsbL-0875_LatLon0.15_PT135H.grib2 2026-04-30 16:25 1.9M
20260430T12Z_MSC_GDPS_WindDir_IsbL-0900_LatLon0.15_PT135H.grib2 2026-04-30 16:25 1.9M
20260430T12Z_MSC_GDPS_WindDir_IsbL-0925_LatLon0.15_PT135H.grib2 2026-04-30 16:25 1.9M
20260430T12Z_MSC_GDPS_WindDir_IsbL-0950_LatLon0.15_PT135H.grib2 2026-04-30 16:25 1.9M
20260430T12Z_MSC_GDPS_WindDir_IsbL-0970_LatLon0.15_PT135H.grib2 2026-04-30 16:25 2.0M
20260430T12Z_MSC_GDPS_WindDir_IsbL-0985_LatLon0.15_PT135H.grib2 2026-04-30 16:25 2.0M
20260430T12Z_MSC_GDPS_WindDir_IsbL-1000_LatLon0.15_PT135H.grib2 2026-04-30 16:25 2.0M
20260430T12Z_MSC_GDPS_WindDir_IsbL-1015_LatLon0.15_PT135H.grib2 2026-04-30 16:25 2.0M
20260430T12Z_MSC_GDPS_WindGust-Max_AGL-10m_LatLon0.15_PT135H.grib2 2026-04-30 16:25 2.2M
20260430T12Z_MSC_GDPS_WindGust-Min_AGL-10m_LatLon0.15_PT135H.grib2 2026-04-30 16:25 2.2M
20260430T12Z_MSC_GDPS_WindGust_AGL-10m_LatLon0.15_PT135H.grib2 2026-04-30 16:25 2.1M
20260430T12Z_MSC_GDPS_WindSpeed_AGL-10m_LatLon0.15_PT135H.grib2 2026-04-30 16:25 1.1M
20260430T12Z_MSC_GDPS_WindSpeed_AGL-120m_LatLon0.15_PT135H.grib2 2026-04-30 16:25 1.2M
20260430T12Z_MSC_GDPS_WindSpeed_AGL-40m_LatLon0.15_PT135H.grib2 2026-04-30 16:25 1.2M
20260430T12Z_MSC_GDPS_WindSpeed_AGL-80m_LatLon0.15_PT135H.grib2 2026-04-30 16:25 1.2M
20260430T12Z_MSC_GDPS_WindSpeed_IsbL-0001_LatLon0.15_PT135H.grib2 2026-04-30 16:25 648K
20260430T12Z_MSC_GDPS_WindSpeed_IsbL-0005_LatLon0.15_PT135H.grib2 2026-04-30 16:25 691K
20260430T12Z_MSC_GDPS_WindSpeed_IsbL-0010_LatLon0.15_PT135H.grib2 2026-04-30 16:25 627K
20260430T12Z_MSC_GDPS_WindSpeed_IsbL-0020_LatLon0.15_PT135H.grib2 2026-04-30 16:25 855K
20260430T12Z_MSC_GDPS_WindSpeed_IsbL-0030_LatLon0.15_PT135H.grib2 2026-04-30 16:25 859K
20260430T12Z_MSC_GDPS_WindSpeed_IsbL-0050_LatLon0.15_PT135H.grib2 2026-04-30 16:25 898K
20260430T12Z_MSC_GDPS_WindSpeed_IsbL-0100_LatLon0.15_PT135H.grib2 2026-04-30 16:25 1.1M
20260430T12Z_MSC_GDPS_WindSpeed_IsbL-0150_LatLon0.15_PT135H.grib2 2026-04-30 16:25 940K
20260430T12Z_MSC_GDPS_WindSpeed_IsbL-0175_LatLon0.15_PT135H.grib2 2026-04-30 16:25 1.0M
20260430T12Z_MSC_GDPS_WindSpeed_IsbL-0200_LatLon0.15_PT135H.grib2 2026-04-30 16:25 1.1M
20260430T12Z_MSC_GDPS_WindSpeed_IsbL-0225_LatLon0.15_PT135H.grib2 2026-04-30 16:25 1.1M
20260430T12Z_MSC_GDPS_WindSpeed_IsbL-0250_LatLon0.15_PT135H.grib2 2026-04-30 16:25 1.1M
20260430T12Z_MSC_GDPS_WindSpeed_IsbL-0275_LatLon0.15_PT135H.grib2 2026-04-30 16:25 1.1M
20260430T12Z_MSC_GDPS_WindSpeed_IsbL-0300_LatLon0.15_PT135H.grib2 2026-04-30 16:25 1.1M
20260430T12Z_MSC_GDPS_WindSpeed_IsbL-0350_LatLon0.15_PT135H.grib2 2026-04-30 16:25 1.1M
20260430T12Z_MSC_GDPS_WindSpeed_IsbL-0400_LatLon0.15_PT135H.grib2 2026-04-30 16:25 1.1M
20260430T12Z_MSC_GDPS_WindSpeed_IsbL-0450_LatLon0.15_PT135H.grib2 2026-04-30 16:25 1.1M
20260430T12Z_MSC_GDPS_WindSpeed_IsbL-0500_LatLon0.15_PT135H.grib2 2026-04-30 16:25 1.1M
20260430T12Z_MSC_GDPS_WindSpeed_IsbL-0550_LatLon0.15_PT135H.grib2 2026-04-30 16:25 1.1M
20260430T12Z_MSC_GDPS_WindSpeed_IsbL-0600_LatLon0.15_PT135H.grib2 2026-04-30 16:25 1.1M
20260430T12Z_MSC_GDPS_WindSpeed_IsbL-0650_LatLon0.15_PT135H.grib2 2026-04-30 16:25 1.4M
20260430T12Z_MSC_GDPS_WindSpeed_IsbL-0700_LatLon0.15_PT135H.grib2 2026-04-30 16:25 1.5M
20260430T12Z_MSC_GDPS_WindSpeed_IsbL-0750_LatLon0.15_PT135H.grib2 2026-04-30 16:25 1.5M
20260430T12Z_MSC_GDPS_WindSpeed_IsbL-0800_LatLon0.15_PT135H.grib2 2026-04-30 16:25 1.6M
20260430T12Z_MSC_GDPS_WindSpeed_IsbL-0850_LatLon0.15_PT135H.grib2 2026-04-30 16:25 1.7M
20260430T12Z_MSC_GDPS_WindSpeed_IsbL-0875_LatLon0.15_PT135H.grib2 2026-04-30 16:25 1.8M
20260430T12Z_MSC_GDPS_WindSpeed_IsbL-0900_LatLon0.15_PT135H.grib2 2026-04-30 16:25 1.8M
20260430T12Z_MSC_GDPS_WindSpeed_IsbL-0925_LatLon0.15_PT135H.grib2 2026-04-30 16:25 1.8M
20260430T12Z_MSC_GDPS_WindSpeed_IsbL-0950_LatLon0.15_PT135H.grib2 2026-04-30 16:25 1.9M
20260430T12Z_MSC_GDPS_WindSpeed_IsbL-0970_LatLon0.15_PT135H.grib2 2026-04-30 16:25 1.9M
20260430T12Z_MSC_GDPS_WindSpeed_IsbL-0985_LatLon0.15_PT135H.grib2 2026-04-30 16:25 1.9M
20260430T12Z_MSC_GDPS_WindSpeed_IsbL-1000_LatLon0.15_PT135H.grib2 2026-04-30 16:25 1.8M
20260430T12Z_MSC_GDPS_WindSpeed_IsbL-1015_LatLon0.15_PT135H.grib2 2026-04-30 16:25 1.8M
20260430T12Z_MSC_GDPS_WindU_AGL-10m_LatLon0.15_PT135H.grib2 2026-04-30 16:25 1.3M
20260430T12Z_MSC_GDPS_WindU_AGL-120m_LatLon0.15_PT135H.grib2 2026-04-30 16:25 965K
20260430T12Z_MSC_GDPS_WindU_AGL-40m_LatLon0.15_PT135H.grib2 2026-04-30 16:25 959K
20260430T12Z_MSC_GDPS_WindU_AGL-80m_LatLon0.15_PT135H.grib2 2026-04-30 16:25 965K
20260430T12Z_MSC_GDPS_WindU_IsbL-0001_LatLon0.15_PT135H.grib2 2026-04-30 16:25 503K
20260430T12Z_MSC_GDPS_WindU_IsbL-0005_LatLon0.15_PT135H.grib2 2026-04-30 16:25 687K
20260430T12Z_MSC_GDPS_WindU_IsbL-0010_LatLon0.15_PT135H.grib2 2026-04-30 16:25 702K
20260430T12Z_MSC_GDPS_WindU_IsbL-0020_LatLon0.15_PT135H.grib2 2026-04-30 16:25 732K
20260430T12Z_MSC_GDPS_WindU_IsbL-0030_LatLon0.15_PT135H.grib2 2026-04-30 16:25 739K
20260430T12Z_MSC_GDPS_WindU_IsbL-0050_LatLon0.15_PT135H.grib2 2026-04-30 16:25 763K
20260430T12Z_MSC_GDPS_WindU_IsbL-0100_LatLon0.15_PT135H.grib2 2026-04-30 16:25 921K
20260430T12Z_MSC_GDPS_WindU_IsbL-0150_LatLon0.15_PT135H.grib2 2026-04-30 16:25 1.0M
20260430T12Z_MSC_GDPS_WindU_IsbL-0175_LatLon0.15_PT135H.grib2 2026-04-30 16:25 1.0M
20260430T12Z_MSC_GDPS_WindU_IsbL-0200_LatLon0.15_PT135H.grib2 2026-04-30 16:25 844K
20260430T12Z_MSC_GDPS_WindU_IsbL-0225_LatLon0.15_PT135H.grib2 2026-04-30 16:25 852K
20260430T12Z_MSC_GDPS_WindU_IsbL-0250_LatLon0.15_PT135H.grib2 2026-04-30 16:25 851K
20260430T12Z_MSC_GDPS_WindU_IsbL-0275_LatLon0.15_PT135H.grib2 2026-04-30 16:25 874K
20260430T12Z_MSC_GDPS_WindU_IsbL-0300_LatLon0.15_PT135H.grib2 2026-04-30 16:25 866K
20260430T12Z_MSC_GDPS_WindU_IsbL-0350_LatLon0.15_PT135H.grib2 2026-04-30 16:25 884K
20260430T12Z_MSC_GDPS_WindU_IsbL-0400_LatLon0.15_PT135H.grib2 2026-04-30 16:25 885K
20260430T12Z_MSC_GDPS_WindU_IsbL-0450_LatLon0.15_PT135H.grib2 2026-04-30 16:25 888K
20260430T12Z_MSC_GDPS_WindU_IsbL-0500_LatLon0.15_PT135H.grib2 2026-04-30 16:25 1.1M
20260430T12Z_MSC_GDPS_WindU_IsbL-0550_LatLon0.15_PT135H.grib2 2026-04-30 16:25 1.1M
20260430T12Z_MSC_GDPS_WindU_IsbL-0600_LatLon0.15_PT135H.grib2 2026-04-30 16:25 1.1M
20260430T12Z_MSC_GDPS_WindU_IsbL-0650_LatLon0.15_PT135H.grib2 2026-04-30 16:25 1.2M
20260430T12Z_MSC_GDPS_WindU_IsbL-0700_LatLon0.15_PT135H.grib2 2026-04-30 16:25 1.2M
20260430T12Z_MSC_GDPS_WindU_IsbL-0750_LatLon0.15_PT135H.grib2 2026-04-30 16:25 1.3M
20260430T12Z_MSC_GDPS_WindU_IsbL-0800_LatLon0.15_PT135H.grib2 2026-04-30 16:25 1.3M
20260430T12Z_MSC_GDPS_WindU_IsbL-0850_LatLon0.15_PT135H.grib2 2026-04-30 16:25 1.4M
20260430T12Z_MSC_GDPS_WindU_IsbL-0875_LatLon0.15_PT135H.grib2 2026-04-30 16:25 1.5M
20260430T12Z_MSC_GDPS_WindU_IsbL-0900_LatLon0.15_PT135H.grib2 2026-04-30 16:25 1.5M
20260430T12Z_MSC_GDPS_WindU_IsbL-0925_LatLon0.15_PT135H.grib2 2026-04-30 16:25 1.5M
20260430T12Z_MSC_GDPS_WindU_IsbL-0950_LatLon0.15_PT135H.grib2 2026-04-30 16:25 1.4M
20260430T12Z_MSC_GDPS_WindU_IsbL-0970_LatLon0.15_PT135H.grib2 2026-04-30 16:25 1.4M
20260430T12Z_MSC_GDPS_WindU_IsbL-0985_LatLon0.15_PT135H.grib2 2026-04-30 16:25 1.4M
20260430T12Z_MSC_GDPS_WindU_IsbL-1000_LatLon0.15_PT135H.grib2 2026-04-30 16:25 1.4M
20260430T12Z_MSC_GDPS_WindU_IsbL-1015_LatLon0.15_PT135H.grib2 2026-04-30 16:25 1.3M
20260430T12Z_MSC_GDPS_WindV_AGL-10m_LatLon0.15_PT135H.grib2 2026-04-30 16:25 1.6M
20260430T12Z_MSC_GDPS_WindV_AGL-120m_LatLon0.15_PT135H.grib2 2026-04-30 16:25 966K
20260430T12Z_MSC_GDPS_WindV_AGL-40m_LatLon0.15_PT135H.grib2 2026-04-30 16:25 961K
20260430T12Z_MSC_GDPS_WindV_AGL-80m_LatLon0.15_PT135H.grib2 2026-04-30 16:25 967K
20260430T12Z_MSC_GDPS_WindV_IsbL-0001_LatLon0.15_PT135H.grib2 2026-04-30 16:25 779K
20260430T12Z_MSC_GDPS_WindV_IsbL-0005_LatLon0.15_PT135H.grib2 2026-04-30 16:25 851K
20260430T12Z_MSC_GDPS_WindV_IsbL-0010_LatLon0.15_PT135H.grib2 2026-04-30 16:25 883K
20260430T12Z_MSC_GDPS_WindV_IsbL-0020_LatLon0.15_PT135H.grib2 2026-04-30 16:25 931K
20260430T12Z_MSC_GDPS_WindV_IsbL-0030_LatLon0.15_PT135H.grib2 2026-04-30 16:25 933K
20260430T12Z_MSC_GDPS_WindV_IsbL-0050_LatLon0.15_PT135H.grib2 2026-04-30 16:25 1.0M
20260430T12Z_MSC_GDPS_WindV_IsbL-0100_LatLon0.15_PT135H.grib2 2026-04-30 16:25 1.1M
20260430T12Z_MSC_GDPS_WindV_IsbL-0150_LatLon0.15_PT135H.grib2 2026-04-30 16:25 1.0M
20260430T12Z_MSC_GDPS_WindV_IsbL-0175_LatLon0.15_PT135H.grib2 2026-04-30 16:25 1.0M
20260430T12Z_MSC_GDPS_WindV_IsbL-0200_LatLon0.15_PT135H.grib2 2026-04-30 16:25 838K
20260430T12Z_MSC_GDPS_WindV_IsbL-0225_LatLon0.15_PT135H.grib2 2026-04-30 16:25 847K
20260430T12Z_MSC_GDPS_WindV_IsbL-0250_LatLon0.15_PT135H.grib2 2026-04-30 16:25 848K
20260430T12Z_MSC_GDPS_WindV_IsbL-0275_LatLon0.15_PT135H.grib2 2026-04-30 16:25 930K
20260430T12Z_MSC_GDPS_WindV_IsbL-0300_LatLon0.15_PT135H.grib2 2026-04-30 16:25 860K
20260430T12Z_MSC_GDPS_WindV_IsbL-0350_LatLon0.15_PT135H.grib2 2026-04-30 16:25 874K
20260430T12Z_MSC_GDPS_WindV_IsbL-0400_LatLon0.15_PT135H.grib2 2026-04-30 16:25 875K
20260430T12Z_MSC_GDPS_WindV_IsbL-0450_LatLon0.15_PT135H.grib2 2026-04-30 16:25 1.1M
20260430T12Z_MSC_GDPS_WindV_IsbL-0500_LatLon0.15_PT135H.grib2 2026-04-30 16:25 1.1M
20260430T12Z_MSC_GDPS_WindV_IsbL-0550_LatLon0.15_PT135H.grib2 2026-04-30 16:25 1.1M
20260430T12Z_MSC_GDPS_WindV_IsbL-0600_LatLon0.15_PT135H.grib2 2026-04-30 16:25 1.1M
20260430T12Z_MSC_GDPS_WindV_IsbL-0650_LatLon0.15_PT135H.grib2 2026-04-30 16:25 1.2M
20260430T12Z_MSC_GDPS_WindV_IsbL-0700_LatLon0.15_PT135H.grib2 2026-04-30 16:25 1.2M
20260430T12Z_MSC_GDPS_WindV_IsbL-0750_LatLon0.15_PT135H.grib2 2026-04-30 16:25 1.3M
20260430T12Z_MSC_GDPS_WindV_IsbL-0800_LatLon0.15_PT135H.grib2 2026-04-30 16:25 1.3M
20260430T12Z_MSC_GDPS_WindV_IsbL-0850_LatLon0.15_PT135H.grib2 2026-04-30 16:25 1.4M
20260430T12Z_MSC_GDPS_WindV_IsbL-0875_LatLon0.15_PT135H.grib2 2026-04-30 16:25 1.4M
20260430T12Z_MSC_GDPS_WindV_IsbL-0900_LatLon0.15_PT135H.grib2 2026-04-30 16:25 1.4M
20260430T12Z_MSC_GDPS_WindV_IsbL-0925_LatLon0.15_PT135H.grib2 2026-04-30 16:25 1.4M
20260430T12Z_MSC_GDPS_WindV_IsbL-0950_LatLon0.15_PT135H.grib2 2026-04-30 16:25 1.4M
20260430T12Z_MSC_GDPS_WindV_IsbL-0970_LatLon0.15_PT135H.grib2 2026-04-30 16:25 1.4M
20260430T12Z_MSC_GDPS_WindV_IsbL-0985_LatLon0.15_PT135H.grib2 2026-04-30 16:25 1.4M
20260430T12Z_MSC_GDPS_WindV_IsbL-1000_LatLon0.15_PT135H.grib2 2026-04-30 16:25 1.4M
20260430T12Z_MSC_GDPS_WindV_IsbL-1015_LatLon0.15_PT135H.grib2 2026-04-30 16:25 1.3M